Jackson, MI

6:33 AM EDT on October 16, 2019 (GMT -0400)
Jackson County-Reynolds

Weather History for KJXN - August, 2019

Change the Weather History Date:

Friday, August 30, 2019

  Actual Average Record
Temperature  
Mean Temperature 66 °F 68 °F  
Max Temperature 75 °F 78 °F 93 °F (1969)
Min Temperature 57 °F 57 °F 37 °F (1976)
Degree Days  
Heating Degree Days 0 1  
Month to date heating degree days 9 26  
Since 1 June heating degree days 67 92  
Since 1 July heating degree days 9 37  
Cooling Degree Days 1 4  
Month to date cooling degree days 154 160  
Year to date cooling degree days 559 525  
Since 1 June cooling degree days 549 488  
Growing Degree Days 16 (Base 50)    
Moisture  
Dew Point 57 °F    
Average Humidity 79    
Maximum Humidity 100    
Minimum Humidity 44    
Precipitation  
Precipitation 0.08 in 0.11 in 1.99 in (1975)
Month to date precipitation 1.72 3.35  
Year to date precipitation 21.91 20.80  
Sea Level Pressure  
Sea Level Pressure 30.02 in    
Wind  
Wind Speed 4 mph ()    
Max Wind Speed 10 mph    
Max Gust Speed 16 mph    
Visibility 6.7 miles    
Events Fog , Rain , Thunderstorm    
T = Trace of Precipitation, MM = Missing Value Source: Averaged Metar Reports

Daily Weather History Graph

Daily Weather History Graph

Search for Another Location

Airport or City:

Astronomy

Aug. 30, 2019 Rise Set
Actual Time 7:00 AM EDT 8:15 PM EDT
Civil Twilight 6:31 AM EDT 8:44 PM EDT
Nautical Twilight 5:57 AM EDT 9:18 PM EDT
Astronomical Twilight 5:20 AM EDT 9:55 PM EDT
Moon 6:59 AM EDT (8/30) 8:51 PM EDT (8/30)
Length of Visible Light 14h 12m
Length of Day
13h 14m
New Moon, 0% of the Moon is Illuminated
Aug 30
New Moon
Sep 5
First Quarter
Sep 14
Full
Sep 21
Last Quarter
Sep 28
New

Hourly Weather History & Observations

Time (EDT) Temp. Dew Point Humidity Pressure Visibility Wind Dir Wind Speed Gust Speed Precip Events Conditions
12:03 AM 63.0 °F 61.0 °F 93% 29.92 in 1.5 mi WSW 9.2 mph - 0.07 in Rain , Thunderstorm Heavy Thunderstorms and Rain
12:08 AM 63.0 °F 61.0 °F 93% 29.90 in 2.5 mi Variable 3.5 mph - 0.07 in Rain , Thunderstorm Light Rain
12:15 AM 63.0 °F 61.0 °F 93% 29.91 in 7.0 mi West 5.8 mph - 0.08 in Rain , Thunderstorm Light Rain
12:23 AM 63.0 °F 61.0 °F 93% 29.91 in 10.0 mi WSW 5.8 mph - 0.08 in   Overcast
12:56 AM 63.0 °F 61.0 °F 93% 29.90 in 10.0 mi SSW 4.6 mph - 0.08 in   Overcast
1:56 AM 62.1 °F 60.1 °F 93% 29.92 in 10.0 mi Calm Calm - N/A   Mostly Cloudy
2:56 AM 62.1 °F 60.1 °F 93% 29.92 in 10.0 mi SW 3.5 mph - N/A   Partly Cloudy
3:35 AM 60.1 °F 57.9 °F 93% 29.93 in 1.2 mi SW 3.5 mph - N/A   Clear
3:41 AM 60.1 °F 57.9 °F 93% 29.93 in 0.2 mi SW 4.6 mph - N/A Fog Fog
3:56 AM 61.0 °F 59.0 °F 93% 29.92 in 0.2 mi SW 3.5 mph - N/A Fog Fog
4:21 AM 61.0 °F 59.0 °F 93% 29.94 in 0.8 mi Calm Calm - N/A   Clear
4:30 AM 61.0 °F 59.0 °F 93% 29.94 in 1.2 mi Calm Calm - N/A   Clear
4:36 AM 61.0 °F 60.1 °F 97% 29.94 in 3.0 mi Calm Calm - N/A   Clear
4:40 AM 61.0 °F 60.1 °F 97% 29.95 in 1.5 mi Calm Calm - N/A   Clear
4:43 AM 61.0 °F 60.1 °F 97% 29.95 in 0.8 mi Calm Calm - N/A   Mist
4:56 AM 60.1 °F 59.0 °F 96% 29.94 in 0.8 mi Calm Calm - N/A   Mist
5:01 AM 61.0 °F 59.0 °F 93% 29.95 in 1.2 mi SW 3.5 mph - N/A   Partly Cloudy
5:11 AM 60.1 °F 57.9 °F 93% 29.96 in 3.0 mi WSW 3.5 mph - N/A   Partly Cloudy
5:56 AM 59.0 °F 57.9 °F 96% 29.96 in 8.0 mi SW 3.5 mph - N/A   Clear
6:56 AM 57.9 °F 57.0 °F 97% 30.00 in 5.0 mi WSW 3.5 mph - N/A   Clear
7:56 AM 59.0 °F 57.9 °F 96% 30.03 in 9.0 mi West 3.5 mph - N/A   Clear
8:56 AM 62.1 °F 59.0 °F 90% 30.06 in 10.0 mi WNW 3.5 mph - N/A   Clear
9:56 AM 66.0 °F 57.0 °F 73% 30.07 in 10.0 mi NNW 3.5 mph - N/A   Clear
10:56 AM 69.1 °F 52.0 °F 54% 30.07 in 10.0 mi NNW 6.9 mph - N/A   Clear
11:56 AM 70.0 °F 54.0 °F 57% 30.09 in 10.0 mi West 5.8 mph - N/A   Clear
12:56 PM 71.1 °F 53.1 °F 53% 30.10 in 10.0 mi Variable 3.5 mph - N/A   Clear
1:56 PM 73.0 °F 51.1 °F 46% 30.09 in 10.0 mi Variable 6.9 mph - N/A   Clear
2:56 PM 73.0 °F 53.1 °F 49% 30.10 in 10.0 mi Variable 4.6 mph - N/A   Clear
3:56 PM 73.0 °F 50.0 °F 44% 30.09 in 10.0 mi WSW 8.1 mph - N/A   Clear
4:56 PM 73.0 °F 52.0 °F 48% 30.11 in 10.0 mi West 4.6 mph - N/A   Clear
5:56 PM 73.0 °F 51.1 °F 46% 30.11 in 10.0 mi Variable 5.8 mph - N/A   Clear
6:56 PM 71.1 °F 53.1 °F 53% 30.13 in 10.0 mi WSW 5.8 mph - N/A   Clear
7:56 PM 68.0 °F 53.1 °F 59% 30.14 in 10.0 mi WNW 4.6 mph - N/A   Clear
8:56 PM 63.0 °F 53.1 °F 70% 30.17 in 10.0 mi WNW 3.5 mph - N/A   Clear
9:56 PM 63.0 °F 52.0 °F 67% 30.19 in 10.0 mi NW 3.5 mph - N/A   Clear
10:56 PM 61.0 °F 51.1 °F 70% 30.22 in 10.0 mi WNW 4.6 mph - N/A   Clear
11:56 PM 60.1 °F 50.0 °F 69% 30.22 in 10.0 mi NNW 4.6 mph - N/A   Clear